DW8453 Bekkjarvik NO current weather conditions

sailwx.info

Wind from 159 at 12 knots gusting 19

Air temperature 6.1° C
Dewpoint 5.7° C

Last reported at 2015-Jan-28 08:43 UTC.
Time now 2015-Jan-28 09:19 UTC

Location: N 60°01' E 005°12'.
View on Google Maps.

See reports from other nearby stations

  
Tides and Currents Weather Stations Pressure Air Temp Water Temp Dewpoint Dewpoint Depression Visibility Wind Speed Wind Dir Waves Ship Positions
date/time (UTC)wind fromknots sea level pressurealtimeterstation pressurevisibilityair tempwater tempwave heightnotes
2015-Jan-28 08:43 159 12 gusting 19 6.1
2015-Jan-28 08:33 180 11 gusting 17 6.1
2015-Jan-28 08:23 180 12 gusting 19 6.1
2015-Jan-28 08:13 187 15 gusting 21 6.1
2015-Jan-28 08:03 201 13 gusting 19 6.1
2015-Jan-28 07:53 197 14 gusting 17 6.1
2015-Jan-28 07:43 148 12 gusting 15 6.1
2015-Jan-28 07:33 180 12 gusting 26 6.1
2015-Jan-28 07:23 180 13 gusting 21 6.1
2015-Jan-28 07:13 180 13 gusting 15 6.1
2015-Jan-28 07:03 202 14 gusting 19 6.1
2015-Jan-28 06:53 148 11 gusting 24 6.1
2015-Jan-28 05:43 195 13 gusting 24 6.1
2015-Jan-28 05:33 198 14 gusting 24 6.1
2015-Jan-28 05:23 192 13 gusting 24 6.1
2015-Jan-28 05:13 186 16 gusting 22 6.1
2015-Jan-28 05:03 202 20 gusting 22 6.1
2015-Jan-28 04:53 219 12 gusting 22 6.1
2015-Jan-28 04:43 218 15 gusting 19 6.1
2015-Jan-28 04:33 180 15 gusting 19 6.1
2015-Jan-28 04:23 193 13 gusting 19 6.1
2015-Jan-28 04:13 180 12 gusting 21 6.1
2015-Jan-28 04:03 219 15 gusting 18 6.1
2015-Jan-28 03:53 191 10 gusting 21 6.1
2015-Jan-28 03:43 211 12 gusting 24 6.1
2015-Jan-28 03:33 189 12 gusting 18 6.1
2015-Jan-28 03:23 218 14 gusting 24 6.1
2015-Jan-28 03:13 195 11 gusting 20 6.1
2015-Jan-28 03:03 200 10 gusting 14 6.1
2015-Jan-28 02:53 200 13 gusting 18 6.1
2015-Jan-28 02:43 212 11 gusting 17 6.1
2015-Jan-28 02:33 158 13 gusting 19 6.7
2015-Jan-28 02:23 180 16 gusting 20 6.7
2015-Jan-28 02:13 202 17 gusting 20 6.7
2015-Jan-28 02:03 202 15 gusting 18 6.7
2015-Jan-28 01:53 215 8 gusting 17 6.7
2015-Jan-28 01:43 214 9 gusting 14 6.7
2015-Jan-28 01:33 198 10 gusting 13 6.7
2015-Jan-28 01:23 179 10 gusting 13 6.7
2015-Jan-28 01:13 206 10 gusting 15 6.7
2015-Jan-28 01:03 202 13 gusting 17 6.7
2015-Jan-28 00:53 225 7 gusting 10 6.7
2015-Jan-28 00:43 202 7 gusting 11 6.7
2015-Jan-28 00:33 207 6 gusting 17 6.7
2015-Jan-28 00:23 202 10 gusting 15 6.7
2015-Jan-28 00:13 248 11 gusting 15 6.7
2015-Jan-28 00:03 221 12 gusting 17 6.7
2015-Jan-27 23:53 211 8 gusting 15 6.7
2015-Jan-27 23:43 233 13 gusting 19 6.7
2015-Jan-27 23:33 218 14 gusting 21 6.7
2015-Jan-27 23:23 221 15 gusting 21 6.7
2015-Jan-27 23:13 222 14 gusting 17 6.7
2015-Jan-27 23:03 223 11 gusting 13 6.7
2015-Jan-27 22:53 212 13 gusting 14 6.7
2015-Jan-27 22:43 215 13 gusting 14 6.7
2015-Jan-27 22:33 244 13 gusting 19 6.7
2015-Jan-27 22:23 205 13 gusting 19 6.7
2015-Jan-27 22:13 225 8 gusting 13 6.7
2015-Jan-27 22:03 246 7 gusting 13 6.7
2015-Jan-27 21:53 237 10 gusting 13 6.7
2015-Jan-27 21:43 203 10 gusting 12 6.7
2015-Jan-27 21:33 210 6 gusting 14 6.7
2015-Jan-27 21:23 225 13 gusting 17 6.7
2015-Jan-27 21:13 230 8 gusting 13 6.7
2015-Jan-27 21:03 248 7 gusting 13 6.7
2015-Jan-27 20:53 217 10 gusting 13 6.7
2015-Jan-27 20:43 248 8 gusting 13 6.7
2015-Jan-27 20:33 245 13 gusting 15 6.7
2015-Jan-27 20:23 225 7 gusting 13 7.2
2015-Jan-27 20:13 255 9 gusting 12 7.2
2015-Jan-27 20:03 213 8 gusting 11 7.2
2015-Jan-27 19:53 257 10 gusting 13 7.2
2015-Jan-27 19:43 248 9 gusting 13 7.2
2015-Jan-27 19:33 244 6 gusting 13 7.2
2015-Jan-27 19:23 247 8 gusting 13 7.2
2015-Jan-27 13:53 191 5 gusting 8 5.6
2015-Jan-27 13:43 176 6 gusting 10 5.6
2015-Jan-27 13:33 179 6 gusting 10 5.6
2015-Jan-27 13:23 186 6 gusting 7 5.0
2015-Jan-27 13:13 176 5 gusting 8 5.0
2015-Jan-27 13:03 177 5 gusting 8 5.0
2015-Jan-27 12:53 171 6 gusting 8 5.0
2015-Jan-27 12:43 174 5 gusting 10 5.0
2015-Jan-27 12:33 176 5 gusting 7 4.4
2015-Jan-27 12:23 180 7 gusting 10 4.4
2015-Jan-27 12:13 197 6 gusting 10 4.4
2015-Jan-27 12:03 181 5 gusting 10 4.4
2015-Jan-27 11:53 170 6 gusting 10 4.4
2015-Jan-27 11:43 188 6 gusting 8 4.4
2015-Jan-27 11:33 180 6 gusting 8 4.4
2015-Jan-27 11:23 168 5 gusting 7 4.4
2015-Jan-27 11:13 170 4 gusting 10 4.4
2015-Jan-27 11:03 188 6 gusting 7 4.4
2015-Jan-27 10:53 173 5 gusting 7 4.4
2015-Jan-27 10:43 183 5 gusting 7 4.4
2015-Jan-27 10:33 202 6 gusting 10 3.9
2015-Jan-27 10:23 188 4 gusting 10 3.9
2015-Jan-27 10:13 177 5 gusting 7 3.9
2015-Jan-27 10:03 172 5 gusting 7 3.9
2015-Jan-27 09:53 200 4 gusting 6 3.9
2015-Jan-27 09:43 202 5 gusting 10 3.3
2015-Jan-27 09:33 183 6 gusting 7 3.3
2015-Jan-27 09:23 200 7 gusting 12 3.3
2015-Jan-27 09:13 193 6 gusting 11 3.3
2015-Jan-27 09:03 203 6 gusting 12 3.3
2015-Jan-27 08:53 197 9 gusting 14 3.3
2015-Jan-27 08:43 197 11 gusting 13 3.3
2015-Jan-27 08:33 199 7 gusting 13 3.3
2015-Jan-27 08:23 185 8 gusting 12 2.8
2015-Jan-27 08:13 187 6 gusting 11 2.8
2015-Jan-27 08:03 191 8 gusting 11 2.8
2015-Jan-27 07:53 190 7 gusting 11 2.8
2015-Jan-27 07:43 191 10 gusting 12 2.8
2015-Jan-27 07:33 203 6 gusting 11 2.8
2015-Jan-27 07:23 183 6 gusting 8 2.8
2015-Jan-27 07:13 190 7 gusting 11 2.8
2015-Jan-27 07:03 190 6 gusting 10 2.8
2015-Jan-27 06:53 192 9 gusting 11 2.2
2015-Jan-27 05:43 120 2 gusting 4 2.2
2015-Jan-27 05:33 160 2 gusting 4 2.2
2015-Jan-27 05:23 142 2 gusting 4 2.2
2015-Jan-27 05:13 145 1 gusting 2 2.2
2015-Jan-27 05:03 114 1 gusting 4 2.2
2015-Jan-27 04:53 127 1 gusting 2 2.2
2015-Jan-27 04:43 136 1 gusting 4 2.2
2015-Jan-27 04:33 128 2 gusting 5 2.2
2015-Jan-27 04:23 135 2 gusting 4 2.2
2015-Jan-27 04:13 132 2 gusting 4 2.2
2015-Jan-27 04:03 125 3 gusting 5 2.2
2015-Jan-27 03:53 112 0 gusting 4 2.2
2015-Jan-27 03:43 133 1 gusting 2 1.7
2015-Jan-27 03:33 097 0 gusting 4 1.7
2015-Jan-27 03:23 119 1 gusting 1 1.7
2015-Jan-27 03:13 141 0 gusting 1 1.7
2015-Jan-27 03:03 135 0 gusting 2 1.7
2015-Jan-27 02:53 138 1 gusting 2 1.7
2015-Jan-27 02:43 135 0 gusting 1 1.7
2015-Jan-27 02:33 135 0 gusting 2 1.7
2015-Jan-27 02:23 150 0 gusting 1 1.7
2015-Jan-27 02:13 148 1 gusting 1 1.7
2015-Jan-27 02:03 139 1 gusting 1 1.7
2015-Jan-27 01:53 150 1 gusting 2 1.7
2015-Jan-27 01:43 124 0 gusting 1 1.7
2015-Jan-27 01:33 139 1 gusting 1 1.1
2015-Jan-27 01:23 135 1 gusting 1 1.1
2015-Jan-27 01:13 129 1 gusting 1 1.7
2015-Jan-27 01:03 135 1 gusting 1 1.1
2015-Jan-27 00:53 134 1 gusting 1 1.1
2015-Jan-27 00:43 117 0 gusting 1 1.1
2015-Jan-27 00:33 158 2 gusting 4 1.1
2015-Jan-27 00:23 152 2 gusting 2 1.1
2015-Jan-27 00:13 135 1 gusting 1 1.1
2015-Jan-27 00:03 125 0 gusting 0 1.1
2015-Jan-26 23:53 116 0 gusting 1 1.1
2015-Jan-26 23:43 180 0 gusting 1 1.7
2015-Jan-26 23:33 180 0 gusting 1 1.7
2015-Jan-26 23:23 125 0 gusting 1 1.7
2015-Jan-26 23:13 090 0 gusting 0 1.7
2015-Jan-26 23:03 112 1.7
2015-Jan-26 22:53 248 1.7
2015-Jan-26 22:43 256 1.7
2015-Jan-26 22:33 270 1.7
2015-Jan-26 22:23 292 1.7
2015-Jan-26 22:13 272 1.1
2015-Jan-26 22:03 164 1.1
2015-Jan-26 21:53 180 1.1
2015-Jan-26 21:43 161 0 gusting 0 1.1
2015-Jan-26 21:33 158 0 gusting 0 1.7
2015-Jan-26 21:23 131 0 gusting 0 1.7
2015-Jan-26 21:13 135 0 gusting 0 1.7
2015-Jan-26 21:03 180 1.7
2015-Jan-26 20:53 200 2.2
2015-Jan-26 20:43 338 2.8
2015-Jan-26 20:33 354 2.8
2015-Jan-26 20:23 358 0 gusting 1 2.8
2015-Jan-26 20:13 017 1 gusting 5 2.8
2015-Jan-26 19:53 119 0 gusting 1 2.8
2015-Jan-26 19:43 007 0 gusting 0 2.8
2015-Jan-26 19:33 340 3.3
2015-Jan-26 19:23 328 0 gusting 2 3.3
2015-Jan-26 19:13 020 1 gusting 5 3.3
2015-Jan-26 19:03 348 3 gusting 11 3.3
2015-Jan-26 18:53 013 11 gusting 17 3.9
2015-Jan-26 18:43 321 5 gusting 7 3.3
2015-Jan-26 18:33 337 2 gusting 7 3.9
2015-Jan-26 18:23 004 7 gusting 12 3.9
2015-Jan-26 18:13 338 0 gusting 2 3.9
2015-Jan-26 18:03 333 0 gusting 2 3.3
2015-Jan-26 17:53 313 0 gusting 1 3.3
2015-Jan-26 17:43 344 1 gusting 6 3.3
2015-Jan-26 17:33 016 4 gusting 8 3.9
2015-Jan-26 17:23 341 1 gusting 6 3.9
2015-Jan-26 17:13 332 1 gusting 1 3.9
2015-Jan-26 17:03 312 1 gusting 2 3.3
2015-Jan-26 16:53 305 0 gusting 1 3.3
2015-Jan-26 16:43 294 0 gusting 5 3.3
2015-Jan-26 16:33 325 0 gusting 1 3.3
2015-Jan-26 16:23 282 0 gusting 2 3.3
2015-Jan-26 16:13 306 1 gusting 6 3.9
2015-Jan-26 16:03 278 1 gusting 5 3.9
2015-Jan-26 15:53 009 1 gusting 4 3.9
2015-Jan-26 15:43 307 1 gusting 5 4.4
2015-Jan-26 15:33 295 3 gusting 8 3.9
2015-Jan-26 15:23 350 0 gusting 0 3.9
2015-Jan-26 15:13 270 3.9
2015-Jan-26 15:03 237 0 gusting 2 3.9
2015-Jan-26 14:53 254 1 gusting 6 4.4
2015-Jan-26 14:43 240 4 gusting 6 4.4
2015-Jan-26 14:33 324 5.0
2015-Jan-26 14:23 342 0 gusting 2 5.0
2015-Jan-26 14:13 273 5.0
2015-Jan-26 14:03 252 0 gusting 1 5.0
2015-Jan-26 13:53 283 5.0
2015-Jan-26 13:43 265 0 gusting 0 5.0
2015-Jan-26 13:33 292 5.0
2015-Jan-26 13:23 270 5.0
2015-Jan-26 13:13 270 0 gusting 1 5.0
2015-Jan-26 13:03 338 0 gusting 1 5.0
2015-Jan-26 12:53 229 0 gusting 1 5.0
2015-Jan-26 12:43 335 1 gusting 5 5.0
2015-Jan-26 12:33 273 1 gusting 4 5.0
2015-Jan-26 12:23 266 4 gusting 6 5.0
2015-Jan-26 12:13 257 4 gusting 8 5.0
2015-Jan-26 12:03 263 4 gusting 6 5.0
2015-Jan-26 11:53 231 4 gusting 7 5.0
2015-Jan-26 11:43 220 6 gusting 6 5.0
2015-Jan-26 11:33 266 4 gusting 7 5.0
2015-Jan-26 11:23 232 6 gusting 8 5.0
2015-Jan-26 11:13 250 7 gusting 10 5.0
2015-Jan-26 11:03 243 5 gusting 7 5.0
2015-Jan-26 10:53 248 6 gusting 8 5.0
2015-Jan-26 10:43 232 5 gusting 8 5.0
2015-Jan-26 10:33 257 5 gusting 6 5.0
2015-Jan-26 10:23 221 5 gusting 8 5.0
2015-Jan-26 10:13 243 2 gusting 11 5.6
2015-Jan-26 10:03 254 5 gusting 6 5.6
2015-Jan-26 09:53 225 5 gusting 6 5.6
2015-Jan-26 09:43 244 5 gusting 7 5.6
2015-Jan-26 09:33 254 5 gusting 6 5.0
2015-Jan-26 09:23 247 4 gusting 10 5.0
2015-Jan-26 09:13 243 5 gusting 6 5.0
2015-Jan-26 09:03 235 5 gusting 6 5.0